222  
ASUS43 KDTX 300410  
RWRMI  
MICHIGAN HOURLY REGIONAL WEATHER ROUNDUP  
NATIONAL WEATHER SERVICE DETROIT/PONTIAC MI  
1200 AM EDT WED JUL 30 2014  
 
NOTE: "FAIR" INDICATES FEW OR NO CLOUDS BELOW 12,000 FEET WITH NO  
SIGNIFICANT WEATHER AND/OR TO VISIBILITY
.  
 
MIZ047>049-052>055-059>063-066>070-074>076-081>083-300500-  
SOUTHEAST LOWER MICHIGAN  
 
CITY SKY/WX TMP DP RH WIND PRES REMARKS
 
ADRIAN CLEAR 59 58 96 SW3 30.00S  
ALMA PTCLDY 56 55 96 CALM 29.98R  
ANN ARBOR PTCLDY 56 53 90 W5 29.98S  
BAD AXE PTCLDY 58 57 96 W3 29.95R  
DETROIT CITY CLOUDY 66 58 75 NW6 29.97S  
DETROIT CLOUDY 61 57 87 W3 29.98F  
FLINT MOCLDY 60 56 86 CALM 29.97F  
GROSSE ILE CLOUDY 64 57 77 NW5 29.96S  
HILLSDALE CLEAR 55 55 100 CALM 30.00S  
HOWELL CLEAR 57 56 95 CALM 29.98S  
 
CITY SKY/WX TMP DP RH WIND PRES REMARKS
 
JACKSON CLEAR 57 55 93 CALM 29.99S  
LAMBERTVILLE PTCLDY 61 59 94 W3 29.99R  
LANSING CLEAR 60 54 80 CALM 29.99R  
LAPEER NOT AVBL  
MASON CLEAR 60 54 82 CALM 29.98F  
MONROE PTCLDY 61 57 88 W3 29.96S  
MT. CLEMENS CLOUDY 62 58 88 W7 29.95S  
PONTIAC MOCLDY 61 57 87 CALM 29.96F  
PORT HOPE N/A 59 57 93 SW6 29.92S  
PORT HURON CLOUDY 57 55 94 CALM 29.96S  
TRI CITIES MOCLDY 61 58 90 W5 29.97S  
YPSILANTI PTCLDY 63 57 81 CALM 29.98F  

 
MIZ043>046-050>051-056>058-064>065-071>073-077>080-300500-  
SOUTHWEST LOWER MICHIGAN  
 
CITY SKY/WX TMP DP RH WIND PRES REMARKS
 
BATTLE CREEK PTCLDY 61 55 81 CALM 30.00S  
BENTON HARBOR MOCLDY 61 58 90 CALM 30.00S  
BIG RAPIDS CLEAR 58 58 100 CALM 29.98S  
COLDWATER PTCLDY 57 56 96 CALM 30.00S  
HOLLAND MOCLDY 62 59 90 W7 30.00F  
GRAND RAPIDS MOCLDY 64 57 78 W7 29.99F  
KALAMAZOO CLOUDY 61 55 81 CALM 30.00S  
MARSHALL PTCLDY 57 55 93 CALM 29.99S  
MUSKEGON CLOUDY 58 55 90 CALM 29.99F  

 
MIZ016>042-300500-  
NORTHERN LOWER MICHIGAN  
 
CITY SKY/WX TMP DP RH WIND PRES REMARKS
 
ALPENA CLEAR 56 53 90 CALM 29.94F  
BEAVER ISLAND CLEAR 56 53 90 CALM 29.98S  
BELLAIRE MOCLDY 59 55 87 CALM 29.97S  
CADILLAC CLOUDY 55 55 97 CALM 29.98S  
CHARLEVOIX PTCLDY 60 58 94 CALM 30.00S  
FRANKFORT MOCLDY 56 53 89 CALM 29.98S  
GAYLORD PTCLDY 56 54 93 NW5 29.97S  
GRAYLING CLOUDY 56 56 100 CALM 29.98R  
HARBOR SPRINGS CLEAR 57 52 84 N3 29.96S  
HOUGHTON LAKE PTCLDY 57 54 89 NW6 29.98R  
MANISTEE MOCLDY 54 52 94 CALM 29.98S  
OSCODA CLEAR 54 54 99 CALM 29.93S  
PELLSTON CLEAR 51 49 92 CALM 29.97S  
TRAVERSE CITY CLOUDY 63 55 75 NW6 29.97R  

 
MIZ007>008-015-300500-  
EASTERN UPPER MICHIGAN  
 
CITY SKY/WX TMP DP RH WIND PRES REMARKS
 
KINROSS CLOUDY 52 52 100 NW5 29.96S  
MACKINAC ISLAN CLEAR 55 50 85 NW7 29.95F  
NEWBERRY CLEAR 48 48 98 W5 29.97F  
S. S. MARIE CLOUDY 50 47 89 NW5 29.95S  

 
MIZ004>006-011>014-085-300500-  
CENTRAL UPPER MICHIGAN  
 
CITY SKY/WX TMP DP RH WIND PRES REMARKS
 
MANISTIQUE CLEAR 53 52 97 N5 29.98S  
ESCANABA MOCLDY 55 52 88 CALM 29.99S  
MENOMINEE MOCLDY 61 57 88 NE3 29.98S  
SAWYER-GWINN CLEAR 54 53 96 CALM 30.00S FOG  

 
MIZ001>003-009>011-084-300500-  
WESTERN UPPER MICHIGAN  
 
CITY SKY/WX TMP DP RH WIND PRES REMARKS
 
IRON MOUNTAIN MOCLDY 56 51 84 N6 30.00R  
HOUGHTON CLEAR 52 49 89 N7 30.02S  
COPPER HARBOR N/A 55 45 68 N3 30.01R  

 
 
ABBREVIATIONS USED IN REMARKS  
TC - TEMPERATURE IN CELSIUS  
WCI - WIND CHILL INDEX  
HX - HEAT INDEX  
VSB - VISIBILITY  
 
CLICK HERE TO GO TO PREVIOUS BULLETINS.

The Nexlab MI Page Main Text Page